Station Historical Data
Daily Summary for January 31, 2017 Units:  English    Metric   Both
« Previous Day
Next Day »
Daily Weekly Monthly Yearly Custom
  High: Low: Average:
Temperature: 31.1 °F 19.8 °F 25.5 °F
Dew Point: 29.2 °F 12.4 °F 20.8 °F
Humidity: 93% 70% 82%
Wind Speed: 11.0mph 0.0mph 1.9mph
Wind Gust: 14.0mph - -
Wind- - SE
Pressure: 29.94 in 29.63 in -
Precipitation: 0.00 in    
Historical Graphs
 
 
Tabular Data for January 31, 2017
Time Temperature Dew Point Pressure Wind Wind Speed Wind Gust Humidity Rainfall Rate (Hourly)
00:04 20.7 °F 16.6 °F 29.94 in SE 1.0 mph 4.0 mph 84% 0.00 in
00:09 20.7 °F 16.6 °F 29.94 in Calm   2.0 mph 84% 0.00 in
00:14 20.7 °F 16.6 °F 29.94 in Calm   2.0 mph 84% 0.00 in
00:19 20.7 °F 16.6 °F 29.94 in SE 1.0 mph 2.0 mph 84% 0.00 in
00:24 20.7 °F 16.6 °F 29.94 in Calm   3.0 mph 84% 0.00 in
00:29 20.8 °F 16.7 °F 29.93 in SSE 1.0 mph 4.0 mph 84% 0.00 in
00:34 20.7 °F 16.6 °F 29.93 in Calm   3.0 mph 84% 0.00 in
00:39 20.6 °F 16.3 °F 29.93 in East 2.0 mph 3.0 mph 83% 0.00 in
00:44 20.6 °F 16.3 °F 29.93 in ESE 1.0 mph 3.0 mph 83% 0.00 in
00:49 20.6 °F 16.3 °F 29.92 in ESE 1.0 mph 4.0 mph 83% 0.00 in
00:54 20.5 °F 16.2 °F 29.92 in East 2.0 mph 4.0 mph 83% 0.00 in
00:59 20.5 °F 16.2 °F 29.92 in ESE 2.0 mph 3.0 mph 83% 0.00 in
01:04 20.5 °F 16.2 °F 29.92 in ESE 3.0 mph 5.0 mph 83% 0.00 in
01:09 20.5 °F 16.2 °F 29.91 in Calm   5.0 mph 83% 0.00 in
01:14 20.5 °F 16.2 °F 29.91 in SE 2.0 mph 5.0 mph 83% 0.00 in
01:19 20.4 °F 16.1 °F 29.90 in ESE 2.0 mph 5.0 mph 83% 0.00 in
01:24 20.4 °F 16.1 °F 29.90 in SE 2.0 mph 5.0 mph 83% 0.00 in
01:29 20.4 °F 16.1 °F 29.90 in SE 2.0 mph 5.0 mph 83% 0.00 in
01:34 20.5 °F 15.9 °F 29.90 in ESE 2.0 mph 5.0 mph 82% 0.00 in
01:39 20.4 °F 15.8 °F 29.90 in SSE 3.0 mph 5.0 mph 82% 0.00 in
01:44 20.4 °F 15.8 °F 29.89 in SE 2.0 mph 5.0 mph 82% 0.00 in
01:49 20.5 °F 15.6 °F 29.89 in SSE 2.0 mph 4.0 mph 81% 0.00 in
01:54 20.5 °F 15.6 °F 29.89 in SSE 2.0 mph 5.0 mph 81% 0.00 in
01:59 20.6 °F 15.4 °F 29.88 in SSE 4.0 mph 4.0 mph 80% 0.00 in
02:04 20.7 °F 15.2 °F 29.88 in SSE 2.0 mph 5.0 mph 79% 0.00 in
02:09 20.7 °F 14.6 °F 29.88 in SE 1.0 mph 4.0 mph 77% 0.00 in
02:14 20.7 °F 14.6 °F 29.88 in SE 3.0 mph 4.0 mph 77% 0.00 in
02:19 20.7 °F 14.6 °F 29.87 in SE 2.0 mph 5.0 mph 77% 0.00 in
02:24 20.7 °F 14.6 °F 29.87 in SE 2.0 mph 5.0 mph 77% 0.00 in
02:29 20.6 °F 14.2 °F 29.87 in SE 2.0 mph 6.0 mph 76% 0.00 in
02:34 20.6 °F 14.2 °F 29.86 in SE 2.0 mph 6.0 mph 76% 0.00 in
02:39 20.4 °F 14.3 °F 29.86 in ESE 2.0 mph 6.0 mph 77% 0.00 in
02:44 20.4 °F 14.0 °F 29.85 in East 3.0 mph 4.0 mph 76% 0.00 in
02:49 20.4 °F 14.0 °F 29.85 in SE 2.0 mph 4.0 mph 76% 0.00 in
02:54 20.5 °F 14.1 °F 29.85 in SE 2.0 mph 7.0 mph 76% 0.00 in
02:59 20.5 °F 13.8 °F 29.84 in ESE 2.0 mph 5.0 mph 75% 0.00 in
03:04 20.5 °F 13.8 °F 29.84 in SE 2.0 mph 5.0 mph 75% 0.00 in
03:09 20.5 °F 13.5 °F 29.84 in SE 4.0 mph 7.0 mph 74% 0.00 in
03:14 20.3 °F 13.3 °F 29.83 in SE 3.0 mph 5.0 mph 74% 0.00 in
03:19 20.2 °F 13.2 °F 29.83 in SE 2.0 mph 6.0 mph 74% 0.00 in
03:24 20.2 °F 13.2 °F 29.83 in ESE 3.0 mph 6.0 mph 74% 0.00 in
03:29 20.1 °F 13.1 °F 29.82 in ESE 2.0 mph 7.0 mph 74% 0.00 in
03:34 20.0 °F 13.0 °F 29.82 in ESE 2.0 mph 7.0 mph 74% 0.00 in
03:39 20.0 °F 13.0 °F 29.82 in ESE 2.0 mph 6.0 mph 74% 0.00 in
03:44 19.9 °F 12.6 °F 29.81 in ESE 2.0 mph 7.0 mph 73% 0.00 in
03:49 19.9 °F 12.6 °F 29.80 in East 2.0 mph 5.0 mph 73% 0.00 in
03:54 19.8 °F 12.5 °F 29.80 in ESE 2.0 mph 6.0 mph 73% 0.00 in
03:59 19.8 °F 12.5 °F 29.80 in ESE 2.0 mph 5.0 mph 73% 0.00 in
04:04 19.9 °F 12.6 °F 29.80 in SE 2.0 mph 5.0 mph 73% 0.00 in
04:09 19.9 °F 12.6 °F 29.79 in Calm   7.0 mph 73% 0.00 in
04:14 19.9 °F 12.6 °F 29.79 in ESE 2.0 mph 5.0 mph 73% 0.00 in
04:19 20.0 °F 12.7 °F 29.79 in ENE 1.0 mph 5.0 mph 73% 0.00 in
04:24 20.1 °F 12.8 °F 29.79 in ESE 2.0 mph 6.0 mph 73% 0.00 in
04:29 20.2 °F 12.6 °F 29.78 in ESE 2.0 mph 6.0 mph 72% 0.00 in
04:34 20.2 °F 12.6 °F 29.78 in ESE 2.0 mph 5.0 mph 72% 0.00 in
04:39 20.3 °F 12.7 °F 29.78 in ESE 7.0 mph 7.0 mph 72% 0.00 in
04:44 20.3 °F 12.7 °F 29.78 in East 2.0 mph 7.0 mph 72% 0.00 in
04:49 20.4 °F 12.8 °F 29.77 in ESE 2.0 mph 8.0 mph 72% 0.00 in
04:54 20.5 °F 12.6 °F 29.77 in ESE 2.0 mph 8.0 mph 71% 0.00 in
04:59 20.6 °F 12.7 °F 29.77 in ESE 2.0 mph 6.0 mph 71% 0.00 in
05:04 20.6 °F 12.4 °F 29.76 in ENE 5.0 mph 7.0 mph 70% 0.00 in
05:09 20.6 °F 12.4 °F 29.76 in SSE 5.0 mph 7.0 mph 70% 0.00 in
05:14 20.7 °F 12.5 °F 29.76 in SSE 3.0 mph 6.0 mph 70% 0.00 in
05:19 20.8 °F 12.6 °F 29.75 in SSE 5.0 mph 8.0 mph 70% 0.00 in
05:24 20.9 °F 12.6 °F 29.75 in SE 4.0 mph 8.0 mph 70% 0.00 in
05:29 21.0 °F 12.7 °F 29.75 in ESE 4.0 mph 7.0 mph 70% 0.00 in
05:34 21.1 °F 12.8 °F 29.75 in SE 3.0 mph 7.0 mph 70% 0.00 in
05:39 21.2 °F 12.9 °F 29.75 in SSE 3.0 mph 8.0 mph 70% 0.00 in
05:44 21.3 °F 13.4 °F 29.74 in SE 8.0 mph 10.0 mph 71% 0.00 in
05:49 21.3 °F 13.4 °F 29.74 in SSE 6.0 mph 11.0 mph 71% 0.00 in
05:54 21.3 °F 13.7 °F 29.74 in SE 5.0 mph 11.0 mph 72% 0.00 in
05:59 21.3 °F 13.7 °F 29.73 in SE 5.0 mph 10.0 mph 72% 0.00 in
06:04 21.3 °F 13.7 °F 29.73 in SE 5.0 mph 10.0 mph 72% 0.00 in
06:09 21.3 °F 14.0 °F 29.73 in SE 4.0 mph 10.0 mph 73% 0.00 in
06:14 21.2 °F 13.9 °F 29.73 in SE 2.0 mph 5.0 mph 73% 0.00 in
06:19 21.2 °F 14.2 °F 29.73 in ESE 2.0 mph 5.0 mph 74% 0.00 in
06:24 21.2 °F 14.2 °F 29.73 in ESE 5.0 mph 9.0 mph 74% 0.00 in
06:29 21.3 °F 14.3 °F 29.73 in SE 3.0 mph 9.0 mph 74% 0.00 in
06:34 21.2 °F 14.5 °F 29.72 in ESE 3.0 mph 7.0 mph 75% 0.00 in
06:39 21.3 °F 14.6 °F 29.72 in ESE 3.0 mph 7.0 mph 75% 0.00 in
06:44 21.4 °F 15.0 °F 29.72 in ESE 3.0 mph 6.0 mph 76% 0.00 in
06:49 21.5 °F 14.8 °F 29.72 in SE 3.0 mph 8.0 mph 75% 0.00 in
06:54 21.6 °F 15.2 °F 29.72 in East 2.0 mph 10.0 mph 76% 0.00 in
06:59 21.7 °F 15.3 °F 29.72 in SE 3.0 mph 10.0 mph 76% 0.00 in
07:04 21.8 °F 15.4 °F 29.72 in SE 2.0 mph 9.0 mph 76% 0.00 in
07:09 21.8 °F 15.4 °F 29.72 in East 2.0 mph 7.0 mph 76% 0.00 in
07:14 21.8 °F 15.4 °F 29.72 in SSE 2.0 mph 5.0 mph 76% 0.00 in
07:19 21.9 °F 15.8 °F 29.72 in East 6.0 mph 6.0 mph 77% 0.00 in
07:24 21.9 °F 15.8 °F 29.72 in Calm   6.0 mph 77% 0.00 in
07:29 21.9 °F 15.8 °F 29.72 in ESE 3.0 mph 6.0 mph 77% 0.00 in
07:34 21.9 °F 15.8 °F 29.72 in ESE 3.0 mph 7.0 mph 77% 0.00 in
07:39 21.9 °F 16.1 °F 29.72 in ESE 3.0 mph 7.0 mph 78% 0.00 in
07:44 21.8 °F 16.3 °F 29.71 in East 3.0 mph 9.0 mph 79% 0.00 in
07:49 21.7 °F 16.5 °F 29.72 in East 4.0 mph 9.0 mph 80% 0.00 in
07:54 21.6 °F 16.7 °F 29.71 in East 3.0 mph 9.0 mph 81% 0.00 in
07:59 21.6 °F 16.7 °F 29.71 in ESE 5.0 mph 7.0 mph 81% 0.00 in
08:04 21.5 °F 16.6 °F 29.71 in SSE 4.0 mph 10.0 mph 81% 0.00 in
08:09 21.5 °F 17.1 °F 29.72 in ESE 5.0 mph 8.0 mph 83% 0.00 in
08:14 21.4 °F 17.0 °F 29.72 in East 3.0 mph 10.0 mph 83% 0.00 in
08:19 21.5 °F 17.4 °F 29.71 in SE 2.0 mph 5.0 mph 84% 0.00 in
08:24 21.5 °F 17.7 °F 29.71 in ESE 4.0 mph 12.0 mph 85% 0.00 in
08:29 21.4 °F 17.6 °F 29.71 in NE 2.0 mph 6.0 mph 85% 0.00 in
08:34 21.4 °F 17.9 °F 29.71 in East 3.0 mph 8.0 mph 86% 0.00 in
08:39 21.5 °F 18.0 °F 29.70 in East 3.0 mph 8.0 mph 86% 0.00 in
08:44 21.5 °F 18.0 °F 29.70 in ENE 3.0 mph 8.0 mph 86% 0.00 in
08:49 21.6 °F 18.3 °F 29.70 in ENE 3.0 mph 9.0 mph 87% 0.00 in
08:54 21.6 °F 18.3 °F 29.70 in ENE 3.0 mph 9.0 mph 87% 0.00 in
08:59 21.7 °F 18.4 °F 29.70 in NE 3.0 mph 7.0 mph 87% 0.00 in
09:04 21.7 °F 18.4 °F 29.70 in ENE 3.0 mph 7.0 mph 87% 0.00 in
09:09 21.8 °F 18.5 °F 29.69 in ENE 3.0 mph 7.0 mph 87% 0.00 in
09:14 21.9 °F 18.9 °F 29.69 in ENE 3.0 mph 7.0 mph 88% 0.00 in
09:19 22.0 °F 19.0 °F 29.69 in East 2.0 mph 6.0 mph 88% 0.00 in
09:24 22.0 °F 19.0 °F 29.69 in East 2.0 mph 7.0 mph 88% 0.00 in
09:29 22.0 °F 19.0 °F 29.69 in NE 3.0 mph 7.0 mph 88% 0.00 in
09:34 22.0 °F 19.0 °F 29.69 in ENE 3.0 mph 6.0 mph 88% 0.00 in
09:39 22.2 °F 19.2 °F 29.69 in ENE 3.0 mph 6.0 mph 88% 0.00 in
09:44 22.4 °F 19.4 °F 29.68 in ENE 3.0 mph 7.0 mph 88% 0.00 in
09:49 22.7 °F 19.7 °F 29.68 in ENE 3.0 mph 7.0 mph 88% 0.00 in
09:54 22.9 °F 19.9 °F 29.68 in ENE 3.0 mph 8.0 mph 88% 0.00 in
09:59 23.0 °F 19.7 °F 29.68 in NE 2.0 mph 7.0 mph 87% 0.00 in
10:04 23.3 °F 20.0 °F 29.68 in ENE 4.0 mph 9.0 mph 87% 0.00 in
10:09 23.6 °F 20.3 °F 29.67 in NE 4.0 mph 9.0 mph 87% 0.00 in
10:14 23.9 °F 20.3 °F 29.67 in ENE 3.0 mph 8.0 mph 86% 0.00 in
10:19 24.0 °F 20.1 °F 29.67 in ENE 4.0 mph 9.0 mph 85% 0.00 in
10:24 24.2 °F 20.3 °F 29.67 in ENE 3.0 mph 9.0 mph 85% 0.00 in
10:29 24.5 °F 20.6 °F 29.67 in ENE 2.0 mph 6.0 mph 85% 0.00 in
10:34 24.6 °F 20.5 °F 29.67 in NE 1.0 mph 7.0 mph 84% 0.00 in
10:39 24.8 °F 20.7 °F 29.67 in East 5.0 mph 6.0 mph 84% 0.00 in
10:44 24.9 °F 20.8 °F 29.67 in East 3.0 mph 8.0 mph 84% 0.00 in
10:49 25.1 °F 20.9 °F 29.66 in ENE 3.0 mph 8.0 mph 84% 0.00 in
10:54 25.3 °F 20.9 °F 29.66 in NE 4.0 mph 8.0 mph 83% 0.00 in
10:59 25.5 °F 21.1 °F 29.66 in East 3.0 mph 7.0 mph 83% 0.00 in
11:04 25.6 °F 20.9 °F 29.66 in ENE 3.0 mph 6.0 mph 82% 0.00 in
11:09 25.9 °F 21.2 °F 29.66 in NE 1.0 mph 7.0 mph 82% 0.00 in
11:14 25.9 °F 21.2 °F 29.66 in East 3.0 mph 7.0 mph 82% 0.00 in
11:19 26.4 °F 21.1 °F 29.66 in East 3.0 mph 7.0 mph 80% 0.00 in
11:24 26.8 °F 21.5 °F 29.66 in East 3.0 mph 7.0 mph 80% 0.00 in
11:29 27.1 °F 21.5 °F 29.66 in East 3.0 mph 8.0 mph 79% 0.00 in
11:34 27.0 °F 21.4 °F 29.66 in ENE 3.0 mph 10.0 mph 79% 0.00 in
11:39 27.2 °F 21.5 °F 29.66 in East 3.0 mph 8.0 mph 79% 0.00 in
11:44 27.5 °F 22.1 °F 29.65 in East 3.0 mph 8.0 mph 80% 0.00 in
11:49 27.7 °F 22.0 °F 29.65 in ESE 3.0 mph 7.0 mph 79% 0.00 in
11:54 27.8 °F 22.1 °F 29.65 in ESE 2.0 mph 6.0 mph 79% 0.00 in
11:59 28.1 °F 22.4 °F 29.65 in SE 1.0 mph 6.0 mph 79% 0.00 in
12:04 28.5 °F 22.8 °F 29.65 in East 2.0 mph 5.0 mph 79% 0.01 in
12:09 28.6 °F 22.9 °F 29.65 in SE 3.0 mph 5.0 mph 79% 0.01 in
12:14 29.0 °F 23.6 °F 29.65 in East 2.0 mph 6.0 mph 80% 0.01 in
12:19 29.0 °F 23.3 °F 29.65 in ENE 2.0 mph 6.0 mph 79% 0.01 in
12:24 28.5 °F 22.5 °F 29.65 in East 2.0 mph 5.0 mph 78% 0.01 in
12:29 28.9 °F 23.2 °F 29.64 in East 2.0 mph 5.0 mph 79% 0.02 in
12:34 28.9 °F 23.5 °F 29.64 in East 2.0 mph 5.0 mph 80% 0.02 in
12:39 28.7 °F 23.3 °F 29.64 in SE 1.0 mph 5.0 mph 80% 0.02 in
12:44 28.6 °F 22.9 °F 29.64 in NNE 1.0 mph 3.0 mph 79% 0.02 in
12:49 29.0 °F 23.6 °F 29.64 in NE 3.0 mph 5.0 mph 80% 0.02 in
12:54 28.9 °F 23.5 °F 29.64 in ENE 1.0 mph 3.0 mph 80% 0.03 in
12:59 29.1 °F 23.7 °F 29.64 in East 2.0 mph 2.0 mph 80% 0.03 in
13:04 29.0 °F 23.3 °F 29.64 in Calm   2.0 mph 79% 0.02 in
13:09 29.2 °F 23.5 °F 29.64 in Calm   3.0 mph 79% 0.02 in
13:14 29.4 °F 24.0 °F 29.64 in NE 1.0 mph 4.0 mph 80% 0.02 in
13:19 29.0 °F 23.3 °F 29.64 in NE 1.0 mph 4.0 mph 79% 0.03 in
13:24 29.3 °F 23.6 °F 29.64 in NE 1.0 mph 4.0 mph 79% 0.03 in
13:29 29.3 °F 23.9 °F 29.64 in Calm   3.0 mph 80% 0.02 in
13:34 29.6 °F 23.9 °F 29.63 in ENE 1.0 mph 5.0 mph 79% 0.02 in
13:39 29.5 °F 23.8 °F 29.64 in ENE 2.0 mph 2.0 mph 79% 0.03 in
13:44 29.5 °F 23.8 °F 29.64 in East 1.0 mph 4.0 mph 79% 0.03 in
13:49 29.7 °F 24.0 °F 29.64 in Calm   2.0 mph 79% 0.03 in
13:54 29.8 °F 24.1 °F 29.64 in Calm   3.0 mph 79% 0.02 in
13:59 29.7 °F 24.0 °F 29.64 in East 1.0 mph 3.0 mph 79% 0.02 in
14:04 29.5 °F 24.1 °F 29.64 in SSE 1.0 mph 2.0 mph 80% 0.03 in
14:09 30.1 °F 24.4 °F 29.64 in Calm   2.0 mph 79% 0.03 in
14:14 30.1 °F 24.4 °F 29.64 in Calm     79% 0.03 in
14:19 29.8 °F 24.1 °F 29.64 in NE 1.0 mph 3.0 mph 79% 0.02 in
14:24 30.1 °F 24.7 °F 29.64 in NE 1.0 mph 3.0 mph 80% 0.02 in
14:29 29.9 °F 24.2 °F 29.64 in NE 1.0 mph 2.0 mph 79% 0.03 in
14:34 30.1 °F 24.4 °F 29.64 in NE 1.0 mph 3.0 mph 79% 0.03 in
14:39 29.9 °F 24.5 °F 29.65 in Calm   3.0 mph 80% 0.02 in
14:44 30.4 °F 25.3 °F 29.65 in WNW 2.0 mph 3.0 mph 81% 0.02 in
14:49 30.4 °F 25.0 °F 29.65 in Calm   3.0 mph 80% 0.02 in
14:54 30.2 °F 24.8 °F 29.65 in Calm   3.0 mph 80% 0.02 in
14:59 30.4 °F 25.0 °F 29.66 in NNW 1.0 mph 3.0 mph 80% 0.03 in
15:04 30.4 °F 25.0 °F 29.66 in Calm   3.0 mph 80% 0.02 in
15:09 30.2 °F 24.5 °F 29.66 in Calm   3.0 mph 79% 0.02 in
15:14 30.4 °F 24.7 °F 29.66 in Calm     79% 0.02 in
15:19 30.3 °F 24.6 °F 29.66 in Calm     79% 0.02 in
15:24 30.2 °F 24.5 °F 29.67 in Calm   2.0 mph 79% 0.02 in
15:29 30.2 °F 24.8 °F 29.67 in Calm   2.0 mph 80% 0.02 in
15:34 30.6 °F 24.9 °F 29.67 in Calm   2.0 mph 79% 0.02 in
15:39 30.5 °F 24.8 °F 29.67 in Calm     79% 0.02 in
15:44 30.3 °F 24.6 °F 29.67 in Calm     79% 0.02 in
15:49 30.1 °F 24.7 °F 29.67 in Calm     80% 0.02 in
15:54 30.1 °F 24.7 °F 29.67 in Calm     80% 0.02 in
15:59 30.1 °F 24.7 °F 29.68 in Calm     80% 0.01 in
16:04 30.0 °F 24.6 °F 29.68 in Calm     80% 0.02 in
16:09 29.9 °F 24.8 °F 29.68 in Calm     81% 0.02 in
16:14 29.9 °F 24.5 °F 29.68 in Calm     80% 0.02 in
16:19 29.8 °F 24.4 °F 29.68 in Calm     80% 0.02 in
16:24 29.8 °F 24.7 °F 29.69 in Calm     81% 0.02 in
16:29 29.8 °F 24.7 °F 29.69 in Calm     81% 0.01 in
16:34 29.8 °F 24.4 °F 29.69 in Calm     80% 0.01 in
16:39 29.8 °F 24.7 °F 29.69 in Calm     81% 0.01 in
16:44 29.8 °F 24.7 °F 29.69 in Calm     81% 0.01 in
16:49 29.8 °F 24.7 °F 29.69 in Calm     81% 0.01 in
16:54 29.8 °F 24.7 °F 29.70 in Calm     81% 0.01 in
16:59 29.8 °F 24.7 °F 29.70 in Calm     81% 0.01 in
17:04 29.8 °F 24.7 °F 29.70 in Calm     81% 0.00 in
17:09 29.8 °F 24.7 °F 29.70 in Calm     81% 0.00 in
17:14 29.8 °F 24.7 °F 29.70 in Calm     81% 0.00 in
17:19 29.8 °F 24.7 °F 29.71 in Calm     81% 0.00 in
17:24 29.8 °F 24.7 °F 29.71 in Calm     81% 0.00 in
17:29 29.8 °F 24.7 °F 29.71 in Calm     81% 0.00 in
17:34 29.9 °F 24.8 °F 29.71 in Calm     81% 0.00 in
17:39 29.8 °F 25.0 °F 29.71 in Calm     82% 0.00 in
17:44 29.9 °F 25.1 °F 29.72 in Calm     82% 0.00 in
17:49 29.8 °F 25.0 °F 29.72 in Calm     82% 0.00 in
17:54 29.8 °F 25.0 °F 29.72 in Calm     82% 0.00 in
17:59 29.9 °F 25.4 °F 29.72 in WSW 3.0 mph 4.0 mph 83% 0.00 in
18:04 29.8 °F 25.3 °F 29.72 in SW 1.0 mph 4.0 mph 83% 0.00 in
18:09 29.9 °F 25.4 °F 29.72 in SW 2.0 mph 4.0 mph 83% 0.00 in
18:14 29.8 °F 25.6 °F 29.72 in SW 2.0 mph 4.0 mph 84% 0.00 in
18:19 29.7 °F 25.5 °F 29.72 in SW 2.0 mph 4.0 mph 84% 0.00 in
18:24 29.7 °F 25.5 °F 29.72 in SW 2.0 mph 4.0 mph 84% 0.00 in
18:29 29.5 °F 25.3 °F 29.72 in SW 1.0 mph 4.0 mph 84% 0.00 in
18:34 29.5 °F 25.5 °F 29.73 in SW 2.0 mph 4.0 mph 85% 0.00 in
18:39 29.4 °F 25.4 °F 29.73 in SW 2.0 mph 5.0 mph 85% 0.00 in
18:44 29.3 °F 25.4 °F 29.73 in SW 2.0 mph 5.0 mph 85% 0.00 in
18:49 29.3 °F 25.6 °F 29.73 in SW 2.0 mph 5.0 mph 86% 0.00 in
18:54 29.2 °F 25.5 °F 29.73 in South 3.0 mph 5.0 mph 86% 0.00 in
18:59 29.1 °F 25.7 °F 29.73 in SW 1.0 mph 5.0 mph 87% 0.00 in
19:04 29.1 °F 25.7 °F 29.73 in SW 2.0 mph 5.0 mph 87% 0.00 in
19:09 29.0 °F 25.6 °F 29.73 in SW 2.0 mph 5.0 mph 87% 0.00 in
19:14 28.9 °F 25.8 °F 29.73 in SW 2.0 mph 7.0 mph 88% 0.00 in
19:19 28.7 °F 25.6 °F 29.73 in SW 3.0 mph 7.0 mph 88% 0.00 in
19:24 28.8 °F 25.7 °F 29.73 in WSW 2.0 mph 4.0 mph 88% 0.00 in
19:29 28.8 °F 25.7 °F 29.73 in WSW 1.0 mph 4.0 mph 88% 0.00 in
19:34 28.6 °F 25.8 °F 29.73 in WSW 1.0 mph 3.0 mph 89% 0.00 in
19:39 28.6 °F 25.8 °F 29.73 in WSW 2.0 mph 4.0 mph 89% 0.00 in
19:44 28.5 °F 25.7 °F 29.73 in WSW 2.0 mph 4.0 mph 89% 0.00 in
19:49 28.4 °F 25.6 °F 29.73 in SW 2.0 mph 4.0 mph 89% 0.00 in
19:54 28.4 °F 25.6 °F 29.73 in WSW 2.0 mph 4.0 mph 89% 0.00 in
19:59 28.3 °F 25.5 °F 29.73 in WSW 1.0 mph 4.0 mph 89% 0.00 in
20:04 28.3 °F 25.5 °F 29.73 in WSW 1.0 mph 3.0 mph 89% 0.00 in
20:09 28.2 °F 25.6 °F 29.72 in WSW 2.0 mph 3.0 mph 90% 0.00 in
20:14 28.2 °F 25.6 °F 29.73 in SW 1.0 mph 3.0 mph 90% 0.00 in
20:19 28.3 °F 25.7 °F 29.73 in SW 1.0 mph 3.0 mph 90% 0.00 in
20:24 28.2 °F 25.6 °F 29.73 in SW 2.0 mph 4.0 mph 90% 0.00 in
20:29 28.2 °F 25.6 °F 29.73 in WSW 2.0 mph 3.0 mph 90% 0.00 in
20:34 28.2 °F 25.6 °F 29.72 in SW 1.0 mph 4.0 mph 90% 0.00 in
20:39 28.2 °F 25.9 °F 29.73 in WSW 1.0 mph 3.0 mph 91% 0.00 in
20:44 28.3 °F 26.0 °F 29.73 in WSW 1.0 mph 3.0 mph 91% 0.00 in
20:49 28.3 °F 26.0 °F 29.72 in SW 1.0 mph 3.0 mph 91% 0.00 in
20:54 28.3 °F 26.0 °F 29.72 in SW 1.0 mph 2.0 mph 91% 0.00 in
20:59 28.3 °F 26.0 °F 29.72 in SW 1.0 mph 2.0 mph 91% 0.00 in
21:04 28.3 °F 26.0 °F 29.72 in Calm   2.0 mph 91% 0.00 in
21:09 28.3 °F 26.0 °F 29.72 in Calm     91% 0.00 in
21:14 28.3 °F 26.0 °F 29.72 in Calm     91% 0.00 in
21:19 28.3 °F 26.3 °F 29.72 in Calm     92% 0.00 in
21:24 28.3 °F 26.3 °F 29.72 in Calm     92% 0.00 in
21:29 28.3 °F 26.3 °F 29.72 in Calm     92% 0.00 in
21:34 28.3 °F 26.3 °F 29.72 in Calm     92% 0.00 in
21:39 28.3 °F 26.3 °F 29.72 in Calm     92% 0.00 in
21:44 28.3 °F 26.3 °F 29.71 in Calm     92% 0.00 in
21:49 28.3 °F 26.3 °F 29.72 in Calm     92% 0.00 in
21:54 28.2 °F 26.2 °F 29.71 in Calm     92% 0.00 in
21:59 28.3 °F 26.3 °F 29.71 in Calm     92% 0.00 in
22:04 28.3 °F 26.3 °F 29.71 in Calm     92% 0.00 in
22:09 28.3 °F 26.3 °F 29.72 in Calm     92% 0.00 in
22:14 28.3 °F 26.3 °F 29.71 in Calm     92% 0.00 in
22:19 28.3 °F 26.3 °F 29.71 in Calm     92% 0.00 in
22:24 28.3 °F 26.3 °F 29.71 in Calm     92% 0.00 in
22:29 28.4 °F 26.4 °F 29.71 in Calm     92% 0.00 in
22:34 28.5 °F 26.5 °F 29.71 in Calm     92% 0.00 in
22:39 28.5 °F 26.5 °F 29.71 in Calm     92% 0.00 in
22:44 28.5 °F 26.5 °F 29.71 in Calm     92% 0.00 in
22:49 28.5 °F 26.5 °F 29.71 in Calm     92% 0.00 in
22:54 28.6 °F 26.8 °F 29.72 in Calm     93% 0.00 in
22:59 28.7 °F 26.9 °F 29.72 in Calm     93% 0.00 in
23:04 28.7 °F 26.9 °F 29.72 in Calm     93% 0.00 in
23:09 29.1 °F 27.3 °F 29.72 in South 1.0 mph 5.0 mph 93% 0.00 in
23:14 29.4 °F 27.6 °F 29.72 in West 1.0 mph 5.0 mph 93% 0.00 in
23:19 29.7 °F 27.9 °F 29.72 in SW 3.0 mph 6.0 mph 93% 0.00 in
23:24 30.1 °F 28.3 °F 29.73 in WSW 3.0 mph 8.0 mph 93% 0.00 in
23:29 30.4 °F 28.6 °F 29.73 in West 2.0 mph 10.0 mph 93% 0.00 in
23:34 30.7 °F 28.9 °F 29.73 in West 4.0 mph 11.0 mph 93% 0.00 in
23:39 30.8 °F 29.0 °F 29.73 in SW 6.0 mph 10.0 mph 93% 0.00 in
23:44 31.0 °F 29.2 °F 29.73 in WSW 11.0 mph 14.0 mph 93% 0.00 in
23:49 31.0 °F 28.9 °F 29.73 in WSW 6.0 mph 13.0 mph 92% 0.00 in
23:54 31.1 °F 29.0 °F 29.74 in WSW 6.0 mph 13.0 mph 92% 0.00 in
23:59 31.1 °F 28.8 °F 29.74 in WSW 6.0 mph 12.0 mph 91% 0.00 in
Buffalo, New York, USA
Compliments of Weather Underground - 2.5 mb